Back to catalog

STARLINK-3632

AliveCommunicationsVLEO
NORAD 51784·PAYLOAD·🇺🇸 United States

Launched Feb 25, 2022 from Vandenberg Space Force Base

Loading…

Next Passes (next 24 hours)

TLE

FreshSource: CelesTrak SupGP

Epoch: Sep 14, 2026, 22:16 UTC

1 51784C 22017S   26257.92826389 -.00012749  00000+0 -37664-3 0  2576
2 51784  53.1584 204.1083 0001480  95.4131  57.9786 15.34399690    19

Track STARLINK-3632 in real time with AllMySat

Download on the App Store